Location: Newark
(50.1395°N, 5.5234°W)
Time: 16:25:31
(UTC+00:00)

ISS - Visible Passes

Search period start: 23 June 2021 00:00
Search period end: 03 July 2021 00:00
Orbit: 417 x 422 km, 51.6° (Epoch: 22 June)

Date Brightness Start Highest point End Pass type
(mag) Time Alt. Az. Time Alt. Az. Time Alt. Az.
30 Jun -1.8 03:02:29 10° S 03:04:58 19° SE 03:07:27 10° E visible
01 Jul -1.5 02:16:44 12° SSE 02:17:44 13° SE 02:19:22 10° ESE visible
02 Jul -3.0 03:03:52 13° SW 03:06:36 39° SSE 03:09:47 10° E visible
